Weather in Olenegorsk

Russia / Sakha (Yakutia) Republic     69°48′41″N   147°29′11″E
temp.,
°C
wind,
m/s
gust,
m/s
humid.,
%
clouds,
%
prec.,
mm/h
press.,
hPa
HPBL,
m
15 april, thu
thu1523:00−23ese2210048 0.0 10179
02:00−26e2210094 0.0 10179
05:00−27ese22100100 0.0 101610
08:00−20ese2210086 0.0 101541
11:00−14se238628 0.0 1014193
14:00−12se237910 0.0 1012346
17:00−11ese23795 0.0 1011312
20:00−17e22935 0.0 10109
16 april, fri
fri1623:00−24e211009 0.0 10099
02:00−26e1110041 0.0 10089
05:00−28ese1110080 0.0 10079
08:00−21s1110091 0.0 100632
11:00−16ssw119090 0.0 1005160
14:00−12ssw228592 0.0 1004363
17:00−11ssw238190 0.0 1004509
20:00−16sse229454 0.0 10049
17 april, sat
sat1723:00−21sse2210099 0.0 100411
02:00−25se32100100 0.0 100415
05:00−25se33100100 0.1 100437
08:00−20se4710096 0.0 1003131
11:00−13sse58865 0.0 1002258
14:00−7sse611805 0.0 999565
17:00−6se510845 0.0 998450
20:00−10ese36905 0.0 99659
18 april, sun
sun1823:00−15ese329763 0.0 99518
02:00−13ese3398100 0.0 99445
05:00−16ese339956 0.0 99216
08:00−11ese3492100 0.0 99298
11:00−6ese2481100 0.0 991206
14:00−5ssw3588100 0.2 992523
17:00−4wsw689395 0.8 994573
20:00−6wsw37855 0.1 99771
19 april, mon
mon1923:00−14sse229897 0.1 100011
02:00−13wsw119892 0.1 100214
05:00−13w289595 0.4 1006255
08:00−12w4128865 0.1 1009575
11:00−10w71185100 0.1 1012792
14:00−8wnw71077100 0.1 1014857
17:00−7w357580 0.1 1017766
20:00−11se228883 0.0 101811